Year,Month,Day,Hour,Minute,Value (Times are PST for temperature in C)
2015,07,04,00,00,17.10
2015,07,04,00,01,17.10
2015,07,04,00,02,17.10
2015,07,04,00,03,17.10
2015,07,04,00,04,17.10
2015,07,04,00,05,17.10
2015,07,04,00,06,17.10
2015,07,04,00,07,17.10
2015,07,04,00,08,17.10
2015,07,04,00,09,17.00
2015,07,04,00,10,17.00
2015,07,04,00,11,17.00
2015,07,04,00,12,17.00
2015,07,04,00,13,16.90
2015,07,04,00,14,16.90
2015,07,04,00,15,16.90
2015,07,04,00,16,16.90
2015,07,04,00,17,16.90
2015,07,04,00,18,16.90
2015,07,04,00,19,16.80
2015,07,04,00,20,16.80
2015,07,04,00,21,16.80
2015,07,04,00,22,16.80
2015,07,04,00,23,16.80
2015,07,04,00,24,16.80
2015,07,04,00,25,16.80
2015,07,04,00,26,16.80
2015,07,04,00,27,16.70
2015,07,04,00,28,16.70
2015,07,04,00,29,16.70
2015,07,04,00,30,16.70
2015,07,04,00,31,16.60
2015,07,04,00,32,16.60
2015,07,04,00,33,16.60
2015,07,04,00,34,16.60
2015,07,04,00,35,16.60
2015,07,04,00,36,16.60
2015,07,04,00,37,16.50
2015,07,04,00,38,16.50
2015,07,04,00,39,16.40
2015,07,04,00,40,16.40
2015,07,04,00,41,16.40
2015,07,04,00,42,16.40
2015,07,04,00,43,16.40
2015,07,04,00,44,16.40
2015,07,04,00,45,16.40
2015,07,04,00,46,16.40
2015,07,04,00,47,16.40
2015,07,04,00,48,16.40
2015,07,04,00,49,16.40
2015,07,04,00,50,16.40
2015,07,04,00,51,16.30
2015,07,04,00,52,16.30
2015,07,04,00,53,16.30
2015,07,04,00,54,16.30
2015,07,04,00,55,16.30
2015,07,04,00,56,16.30
2015,07,04,00,57,16.20
2015,07,04,00,58,16.20
2015,07,04,00,59,16.20
2015,07,04,01,00,16.20
2015,07,04,01,01,16.20
2015,07,04,01,02,16.20
2015,07,04,01,03,16.20
2015,07,04,01,04,16.20
2015,07,04,01,05,16.10
2015,07,04,01,06,16.10
2015,07,04,01,07,16.10
2015,07,04,01,08,16.00
2015,07,04,01,09,16.00
2015,07,04,01,10,16.00
2015,07,04,01,11,16.00
2015,07,04,01,12,15.90
2015,07,04,01,13,15.90
2015,07,04,01,14,15.90
2015,07,04,01,15,15.90
2015,07,04,01,16,15.90
2015,07,04,01,17,15.90
2015,07,04,01,18,15.80
2015,07,04,01,19,15.80
2015,07,04,01,20,15.80
2015,07,04,01,21,15.80
2015,07,04,01,22,15.80
2015,07,04,01,23,15.80
2015,07,04,01,24,15.80
2015,07,04,01,25,15.80
2015,07,04,01,26,15.80
2015,07,04,01,27,15.80
2015,07,04,01,28,15.80
2015,07,04,01,29,15.80
2015,07,04,01,30,15.80
2015,07,04,01,31,15.80
2015,07,04,01,32,15.70
2015,07,04,01,33,15.70
2015,07,04,01,34,15.70
2015,07,04,01,35,15.70
2015,07,04,01,36,15.70
2015,07,04,01,37,15.70
2015,07,04,01,38,15.70
2015,07,04,01,39,15.60
2015,07,04,01,40,15.70
2015,07,04,01,41,15.60
2015,07,04,01,42,15.70
2015,07,04,01,43,15.70
2015,07,04,01,44,15.70
2015,07,04,01,45,15.60
2015,07,04,01,46,15.70
2015,07,04,01,47,15.60
2015,07,04,01,48,15.60
2015,07,04,01,49,15.60
2015,07,04,01,50,15.60
2015,07,04,01,51,15.60
2015,07,04,01,52,15.60
2015,07,04,01,53,15.60
2015,07,04,01,54,15.60
2015,07,04,01,55,15.50
2015,07,04,01,56,15.50
2015,07,04,01,57,15.50
2015,07,04,01,58,15.50
2015,07,04,01,59,15.40
2015,07,04,02,00,15.40
2015,07,04,02,01,15.40
2015,07,04,02,02,15.40
2015,07,04,02,03,15.40
2015,07,04,02,04,15.30
2015,07,04,02,05,15.30
2015,07,04,02,06,15.30
2015,07,04,02,07,15.30
2015,07,04,02,08,15.30
2015,07,04,02,09,15.30
2015,07,04,02,10,15.30
2015,07,04,02,11,15.30
2015,07,04,02,12,15.30
2015,07,04,02,13,15.30
2015,07,04,02,14,15.30
2015,07,04,02,15,15.30
2015,07,04,02,16,15.30
2015,07,04,02,17,15.30
2015,07,04,02,18,15.30
2015,07,04,02,19,15.30
2015,07,04,02,20,15.30
2015,07,04,02,21,15.30
2015,07,04,02,22,15.30
2015,07,04,02,23,15.30
2015,07,04,02,24,15.30
2015,07,04,02,25,15.30
2015,07,04,02,26,15.30
2015,07,04,02,27,15.30
2015,07,04,02,28,15.30
2015,07,04,02,29,15.30
2015,07,04,02,30,15.20
2015,07,04,02,31,15.20
2015,07,04,02,32,15.20
2015,07,04,02,33,15.20
2015,07,04,02,34,15.20
2015,07,04,02,35,15.10
2015,07,04,02,36,15.10
2015,07,04,02,37,15.10
2015,07,04,02,38,15.10
2015,07,04,02,39,15.10
2015,07,04,02,40,15.10
2015,07,04,02,41,15.10
2015,07,04,02,42,15.10
2015,07,04,02,43,15.10
2015,07,04,02,44,15.10
2015,07,04,02,45,15.10
2015,07,04,02,46,15.10
2015,07,04,02,47,15.10
2015,07,04,02,48,15.10
2015,07,04,02,49,15.10
2015,07,04,02,50,15.10
2015,07,04,02,51,15.10
2015,07,04,02,52,15.20
2015,07,04,02,53,15.20
2015,07,04,02,54,15.20
2015,07,04,02,55,15.20
2015,07,04,02,56,15.20
2015,07,04,02,57,15.20
2015,07,04,02,58,15.20
2015,07,04,02,59,15.20
2015,07,04,03,00,15.10
2015,07,04,03,01,15.10
2015,07,04,03,02,15.10
2015,07,04,03,06,15.10
2015,07,04,03,07,15.10
2015,07,04,03,08,15.10
2015,07,04,03,09,15.00
2015,07,04,03,10,15.00
2015,07,04,03,11,14.90
2015,07,04,03,12,14.90
2015,07,04,03,13,14.80
2015,07,04,03,14,14.80
2015,07,04,03,15,14.80
2015,07,04,03,16,14.80
2015,07,04,03,17,14.80
2015,07,04,03,18,14.80
2015,07,04,03,19,14.80
2015,07,04,03,20,14.80
2015,07,04,03,21,14.80
2015,07,04,03,22,14.80
2015,07,04,03,23,14.80
2015,07,04,03,24,14.80
2015,07,04,03,25,14.80
2015,07,04,03,26,14.80
2015,07,04,03,27,14.80
2015,07,04,03,28,14.80
2015,07,04,03,29,14.80
2015,07,04,03,30,14.80
2015,07,04,03,31,14.80
2015,07,04,03,32,14.80
2015,07,04,03,33,14.80
2015,07,04,03,34,14.80
2015,07,04,03,35,14.80
2015,07,04,03,36,14.80
2015,07,04,03,37,14.80
2015,07,04,03,38,14.80
2015,07,04,03,39,14.80
2015,07,04,03,40,14.80
2015,07,04,03,41,14.80
2015,07,04,03,42,14.80
2015,07,04,03,43,14.80
2015,07,04,03,44,14.80
2015,07,04,03,45,14.80
2015,07,04,03,46,14.80
2015,07,04,03,47,14.80
2015,07,04,03,48,14.80
2015,07,04,03,49,14.80
2015,07,04,03,50,14.80
2015,07,04,03,51,14.80
2015,07,04,03,52,14.80
2015,07,04,03,53,14.80
2015,07,04,03,54,14.80
2015,07,04,03,55,14.80
2015,07,04,03,56,14.80
2015,07,04,03,57,14.80
2015,07,04,03,58,14.80
2015,07,04,03,59,14.70
2015,07,04,04,00,14.70
2015,07,04,04,01,14.70
2015,07,04,04,02,14.70
2015,07,04,04,03,14.60
2015,07,04,04,04,14.60
2015,07,04,04,05,14.60
2015,07,04,04,06,14.60
2015,07,04,04,07,14.50
2015,07,04,04,08,14.50
2015,07,04,04,09,14.50
2015,07,04,04,10,14.50
2015,07,04,04,11,14.50
2015,07,04,04,12,14.50
2015,07,04,04,13,14.50
2015,07,04,04,14,14.50
2015,07,04,04,15,14.50
2015,07,04,04,16,14.50
2015,07,04,04,17,14.50
2015,07,04,04,18,14.50
2015,07,04,04,19,14.50
2015,07,04,04,20,14.50
2015,07,04,04,21,14.50
2015,07,04,04,22,14.50
2015,07,04,04,23,14.60
2015,07,04,04,24,14.50
2015,07,04,04,25,14.50
2015,07,04,04,26,14.50
2015,07,04,04,27,14.50
2015,07,04,04,28,14.50
2015,07,04,04,29,14.50
2015,07,04,04,30,14.50
2015,07,04,04,31,14.50
2015,07,04,04,32,14.50
2015,07,04,04,33,14.50
2015,07,04,04,34,14.50
2015,07,04,04,35,14.50
2015,07,04,04,36,14.50
2015,07,04,04,37,14.50
2015,07,04,04,38,14.50
2015,07,04,04,39,14.50
2015,07,04,04,40,14.50
2015,07,04,04,41,14.50
2015,07,04,04,42,14.50
2015,07,04,04,43,14.50
2015,07,04,04,44,14.50
2015,07,04,04,45,14.50
2015,07,04,04,46,14.40
2015,07,04,04,47,14.40
2015,07,04,04,48,14.40
2015,07,04,04,49,14.40
2015,07,04,04,50,14.40
2015,07,04,04,51,14.40
2015,07,04,04,52,14.40
2015,07,04,04,53,14.40
2015,07,04,04,54,14.40
2015,07,04,04,55,14.30
2015,07,04,04,56,14.30
2015,07,04,04,57,14.30
2015,07,04,04,58,14.30
2015,07,04,04,59,14.30
2015,07,04,05,00,14.30
2015,07,04,05,01,14.30
2015,07,04,05,02,14.30
2015,07,04,05,03,14.30
2015,07,04,05,04,14.30
2015,07,04,05,05,14.30
2015,07,04,05,06,14.30
2015,07,04,05,07,14.20
2015,07,04,05,08,14.20
2015,07,04,05,09,14.20
2015,07,04,05,10,14.20
2015,07,04,05,11,14.10
2015,07,04,05,12,14.10
2015,07,04,05,13,14.10
2015,07,04,05,14,14.00
2015,07,04,05,15,14.00
2015,07,04,05,16,14.00
2015,07,04,05,17,14.00
2015,07,04,05,18,14.00
2015,07,04,05,19,14.00
2015,07,04,05,20,14.00
2015,07,04,05,21,14.00
2015,07,04,05,22,14.00
2015,07,04,05,23,14.00
2015,07,04,05,24,14.00
2015,07,04,05,25,14.00
2015,07,04,05,26,14.00
2015,07,04,05,27,14.00
2015,07,04,05,28,14.10
2015,07,04,05,29,14.10
2015,07,04,05,30,14.10
2015,07,04,05,31,14.10
2015,07,04,05,32,14.10
2015,07,04,05,33,14.10
2015,07,04,05,34,14.10
2015,07,04,05,35,14.20
2015,07,04,05,36,14.20
2015,07,04,05,37,14.20
2015,07,04,05,38,14.20
2015,07,04,05,39,14.20
2015,07,04,05,40,14.20
2015,07,04,05,41,14.20
2015,07,04,05,42,14.20
2015,07,04,05,43,14.30
2015,07,04,05,44,14.30
2015,07,04,05,45,14.30
2015,07,04,05,46,14.40
2015,07,04,05,47,14.40
2015,07,04,05,48,14.40
2015,07,04,05,49,14.40
2015,07,04,05,50,14.50
2015,07,04,05,51,14.50
2015,07,04,05,52,14.60
2015,07,04,05,53,14.60
2015,07,04,05,54,14.70
2015,07,04,05,55,14.70
2015,07,04,05,56,14.80
2015,07,04,05,57,14.80
2015,07,04,05,58,14.90
2015,07,04,05,59,14.90
2015,07,04,06,00,14.90
2015,07,04,06,01,15.00
2015,07,04,06,02,15.00
2015,07,04,06,03,15.10
2015,07,04,06,04,15.10
2015,07,04,06,05,15.20
2015,07,04,06,06,15.30
2015,07,04,06,07,15.40
2015,07,04,06,08,15.60
2015,07,04,06,09,15.80
2015,07,04,06,10,15.90
2015,07,04,06,11,16.00
2015,07,04,06,12,16.00
2015,07,04,06,13,16.20
2015,07,04,06,14,16.20
2015,07,04,06,15,16.30
2015,07,04,06,16,16.50
2015,07,04,06,17,16.70
2015,07,04,06,18,16.90
2015,07,04,06,19,17.10
2015,07,04,06,20,17.40
2015,07,04,06,21,17.50
2015,07,04,06,22,17.70
2015,07,04,06,23,17.70
2015,07,04,06,24,17.80
2015,07,04,06,25,18.00
2015,07,04,06,26,18.10
2015,07,04,06,27,18.20
2015,07,04,06,28,18.30
2015,07,04,06,29,18.50
2015,07,04,06,30,18.60
2015,07,04,06,31,18.70
2015,07,04,06,32,18.80
2015,07,04,06,33,18.80
2015,07,04,06,34,18.90
2015,07,04,06,35,19.00
2015,07,04,06,36,19.00
2015,07,04,06,37,19.00
2015,07,04,06,38,19.00
2015,07,04,06,39,19.00
2015,07,04,06,40,19.00
2015,07,04,06,41,19.00
2015,07,04,06,42,19.00
2015,07,04,06,43,19.00
2015,07,04,06,44,19.00
2015,07,04,06,45,19.10
2015,07,04,06,46,19.10
2015,07,04,06,47,19.10
2015,07,04,06,48,19.10
2015,07,04,06,49,19.20
2015,07,04,06,50,19.20
2015,07,04,06,51,19.20
2015,07,04,06,52,19.20
2015,07,04,06,53,19.30
2015,07,04,06,54,19.30
2015,07,04,06,55,19.30
2015,07,04,06,56,19.40
2015,07,04,06,57,19.40
2015,07,04,06,58,19.50
2015,07,04,06,59,19.60
2015,07,04,07,00,19.60
2015,07,04,07,01,19.70
2015,07,04,07,02,19.70
2015,07,04,07,03,19.80
2015,07,04,07,04,19.80
2015,07,04,07,05,19.90
2015,07,04,07,06,19.90
2015,07,04,07,07,20.00
2015,07,04,07,08,20.10
2015,07,04,07,09,20.10
2015,07,04,07,10,20.20
2015,07,04,07,11,20.20
2015,07,04,07,12,20.20
2015,07,04,07,13,20.30
2015,07,04,07,14,20.30
2015,07,04,07,15,20.40
2015,07,04,07,16,20.40
2015,07,04,07,17,20.50
2015,07,04,07,18,20.50
2015,07,04,07,19,20.60
2015,07,04,07,20,20.60
2015,07,04,07,21,20.60
2015,07,04,07,22,20.70
2015,07,04,07,23,20.70
2015,07,04,07,24,20.70
2015,07,04,07,25,20.80
2015,07,04,07,26,20.80
2015,07,04,07,27,20.80
2015,07,04,07,28,20.80
2015,07,04,07,29,20.90
2015,07,04,07,30,20.90
2015,07,04,07,31,21.00
2015,07,04,07,32,21.00
2015,07,04,07,33,21.00
2015,07,04,07,34,21.10
2015,07,04,07,35,21.10
2015,07,04,07,36,21.10
2015,07,04,07,37,21.20
2015,07,04,07,38,21.20
2015,07,04,07,39,21.20
2015,07,04,07,40,21.30
2015,07,04,07,41,21.30
2015,07,04,07,42,21.30
2015,07,04,07,43,21.30
2015,07,04,07,44,21.30
2015,07,04,07,45,21.40
2015,07,04,07,46,21.40
2015,07,04,07,47,21.40
2015,07,04,07,48,21.50
2015,07,04,07,49,21.50
2015,07,04,07,50,21.60
2015,07,04,07,51,21.60
2015,07,04,07,52,21.60
2015,07,04,07,53,21.60
2015,07,04,07,54,21.70
2015,07,04,07,55,21.70
2015,07,04,07,56,21.70
2015,07,04,07,57,21.80
2015,07,04,07,58,21.80
2015,07,04,07,59,21.80
2015,07,04,08,00,21.90
2015,07,04,08,01,21.90
2015,07,04,08,02,21.90
2015,07,04,08,03,22.00
2015,07,04,08,04,22.00
2015,07,04,08,05,22.00
2015,07,04,08,06,22.10
2015,07,04,08,07,22.10
2015,07,04,08,08,22.10
2015,07,04,08,09,22.10
2015,07,04,08,10,22.10
2015,07,04,08,11,22.20
2015,07,04,08,12,22.20
2015,07,04,08,13,22.20
2015,07,04,08,14,22.20
2015,07,04,08,15,22.30
2015,07,04,08,16,22.30
2015,07,04,08,17,22.40
2015,07,04,08,18,22.40
2015,07,04,08,19,22.50
2015,07,04,08,20,22.50
2015,07,04,08,21,22.60
2015,07,04,08,22,22.60
2015,07,04,08,23,22.70
2015,07,04,08,24,22.70
2015,07,04,08,25,22.70
2015,07,04,08,26,22.70
2015,07,04,08,27,22.70
2015,07,04,08,28,22.70
2015,07,04,08,29,22.70
2015,07,04,08,30,22.70
2015,07,04,08,31,22.70
2015,07,04,08,32,22.80
2015,07,04,08,33,22.80
2015,07,04,08,34,22.80
2015,07,04,08,35,22.90
2015,07,04,08,36,22.90
2015,07,04,08,37,22.90
2015,07,04,08,38,23.00
2015,07,04,08,39,23.00
2015,07,04,08,40,23.00
2015,07,04,08,41,23.10
2015,07,04,08,42,23.10
2015,07,04,08,43,23.20
2015,07,04,08,44,23.20
2015,07,04,08,45,23.20
2015,07,04,08,46,23.20
2015,07,04,08,47,23.20
2015,07,04,08,48,23.20
2015,07,04,08,49,23.30
2015,07,04,08,50,23.30
2015,07,04,08,51,23.30
2015,07,04,08,52,23.40
2015,07,04,08,53,23.50
2015,07,04,08,54,23.50
2015,07,04,08,55,23.60
2015,07,04,08,56,23.60
2015,07,04,08,57,23.70
2015,07,04,08,58,23.70
2015,07,04,08,59,23.80
2015,07,04,09,00,23.80
2015,07,04,09,01,23.90
2015,07,04,09,02,23.90
2015,07,04,09,03,24.00
2015,07,04,09,04,24.00
2015,07,04,09,05,24.10
2015,07,04,09,06,24.20
2015,07,04,09,07,24.30
2015,07,04,09,08,24.30
2015,07,04,09,09,24.40
2015,07,04,09,10,24.40
2015,07,04,09,11,24.40
2015,07,04,09,12,24.40
2015,07,04,09,13,24.40
2015,07,04,09,14,24.30
2015,07,04,09,15,24.30
2015,07,04,09,16,24.30
2015,07,04,09,17,24.30
2015,07,04,09,18,24.30
2015,07,04,09,19,24.30
2015,07,04,09,20,24.30
2015,07,04,09,21,24.30
2015,07,04,09,22,24.30
2015,07,04,09,23,24.30
2015,07,04,09,24,24.30
2015,07,04,09,25,24.30
2015,07,04,09,26,24.40
2015,07,04,09,27,24.40
2015,07,04,09,28,24.50
2015,07,04,09,29,24.50
2015,07,04,09,30,24.60
2015,07,04,09,31,24.60
2015,07,04,09,32,24.60
2015,07,04,09,33,24.70
2015,07,04,09,34,24.70
2015,07,04,09,35,24.80
2015,07,04,09,36,24.80
2015,07,04,09,37,24.80
2015,07,04,09,38,24.80
2015,07,04,09,39,24.80
2015,07,04,09,40,24.80
2015,07,04,09,41,24.90
2015,07,04,09,42,24.90
2015,07,04,09,43,24.90
2015,07,04,09,44,25.00
2015,07,04,09,45,25.00
2015,07,04,09,46,25.10
2015,07,04,09,47,25.10
2015,07,04,09,48,25.20
2015,07,04,09,49,25.20
2015,07,04,09,50,25.30
2015,07,04,09,51,25.30
2015,07,04,09,52,25.30
2015,07,04,09,53,25.30
2015,07,04,09,54,25.30
2015,07,04,09,55,25.30
2015,07,04,09,56,25.30
2015,07,04,09,57,25.30
2015,07,04,09,58,25.40
2015,07,04,09,59,25.40
2015,07,04,10,00,25.40
2015,07,04,10,01,25.50
2015,07,04,10,02,25.60
2015,07,04,10,03,25.60
2015,07,04,10,04,25.60
2015,07,04,10,05,25.70
2015,07,04,10,06,25.80
2015,07,04,10,07,25.80
2015,07,04,10,08,25.80
2015,07,04,10,09,25.90
2015,07,04,10,10,25.90
2015,07,04,10,11,26.00
2015,07,04,10,12,26.10
2015,07,04,10,13,26.10
2015,07,04,10,14,26.20
2015,07,04,10,15,26.30
2015,07,04,10,16,26.30
2015,07,04,10,17,26.30
2015,07,04,10,18,26.30
2015,07,04,10,19,26.20
2015,07,04,10,20,26.10
2015,07,04,10,21,26.10
2015,07,04,10,22,26.00
2015,07,04,10,23,25.90
2015,07,04,10,24,25.70
2015,07,04,10,25,25.60
2015,07,04,10,26,25.40
2015,07,04,10,27,25.30
2015,07,04,10,28,25.30
2015,07,04,10,29,25.30
2015,07,04,10,30,25.30
2015,07,04,10,31,25.30
2015,07,04,10,32,25.40
2015,07,04,10,33,25.50
2015,07,04,10,34,25.50
2015,07,04,10,35,25.60
2015,07,04,10,36,25.60
2015,07,04,10,37,25.70
2015,07,04,10,38,25.70
2015,07,04,10,39,25.70
2015,07,04,10,40,25.70
2015,07,04,10,41,25.70
2015,07,04,10,42,25.80
2015,07,04,10,43,25.80
2015,07,04,10,44,25.90
2015,07,04,10,45,25.90
2015,07,04,10,46,26.00
2015,07,04,10,47,26.00
2015,07,04,10,48,26.10
2015,07,04,10,49,26.10
2015,07,04,10,50,26.10
2015,07,04,10,51,26.10
2015,07,04,10,52,26.10
2015,07,04,10,53,26.20
2015,07,04,10,54,26.30
2015,07,04,10,55,26.40
2015,07,04,10,56,26.50
2015,07,04,10,57,26.60
2015,07,04,10,58,26.70
2015,07,04,10,59,26.70
2015,07,04,11,00,26.70
2015,07,04,11,01,26.80
2015,07,04,11,02,26.80
2015,07,04,11,03,26.80
2015,07,04,11,04,26.80
2015,07,04,11,05,26.80
2015,07,04,11,06,26.80
2015,07,04,11,07,26.80
2015,07,04,11,08,26.80
2015,07,04,11,09,26.80
2015,07,04,11,10,26.80
2015,07,04,11,11,26.80
2015,07,04,11,12,26.70
2015,07,04,11,13,26.70
2015,07,04,11,14,26.80
2015,07,04,11,15,26.80
2015,07,04,11,16,26.80
2015,07,04,11,17,26.80
2015,07,04,11,18,26.80
2015,07,04,11,19,26.70
2015,07,04,11,20,26.60
2015,07,04,11,21,26.60
2015,07,04,11,22,26.50
2015,07,04,11,23,26.50
2015,07,04,11,24,26.40
2015,07,04,11,25,26.40
2015,07,04,11,26,26.50
2015,07,04,11,27,26.60
2015,07,04,11,28,26.50
2015,07,04,11,29,26.50
2015,07,04,11,30,26.50
2015,07,04,11,31,26.50
2015,07,04,11,32,26.50
2015,07,04,11,33,26.50
2015,07,04,11,34,26.60
2015,07,04,11,35,26.60
2015,07,04,11,36,26.60
2015,07,04,11,37,26.70
2015,07,04,11,38,26.70
2015,07,04,11,39,26.80
2015,07,04,11,40,26.80
2015,07,04,11,41,26.90
2015,07,04,11,42,27.00
2015,07,04,11,43,27.10
2015,07,04,11,44,27.10
2015,07,04,11,45,27.20
2015,07,04,11,46,27.30
2015,07,04,11,47,27.30
2015,07,04,11,48,27.30
2015,07,04,11,49,27.30
2015,07,04,11,50,27.40
2015,07,04,11,51,27.40
2015,07,04,11,52,27.40
2015,07,04,11,53,27.40
2015,07,04,11,54,27.50
2015,07,04,11,55,27.50
2015,07,04,11,56,27.50
2015,07,04,11,57,27.50
2015,07,04,11,58,27.60
2015,07,04,11,59,27.60
2015,07,04,12,00,27.70
2015,07,04,12,01,27.80
2015,07,04,12,02,27.90
2015,07,04,12,03,27.90
2015,07,04,12,04,28.00
2015,07,04,12,05,28.10
2015,07,04,12,06,28.20
2015,07,04,12,07,28.30
2015,07,04,12,08,28.30
2015,07,04,12,09,28.40
2015,07,04,12,10,28.50
2015,07,04,12,11,28.60
2015,07,04,12,12,28.70
2015,07,04,12,13,28.70
2015,07,04,12,14,28.80
2015,07,04,12,15,28.80
2015,07,04,12,16,28.90
2015,07,04,12,17,28.90
2015,07,04,12,18,28.90
2015,07,04,12,19,28.90
2015,07,04,12,20,28.90
2015,07,04,12,21,28.90
2015,07,04,12,22,28.90
2015,07,04,12,23,28.90
2015,07,04,12,24,28.90
2015,07,04,12,25,29.00
2015,07,04,12,26,29.00
2015,07,04,12,27,29.10
2015,07,04,12,28,29.10
2015,07,04,12,29,29.10
2015,07,04,12,30,29.10
2015,07,04,12,31,29.10
2015,07,04,12,32,29.10
2015,07,04,12,33,29.10
2015,07,04,12,34,29.10
2015,07,04,12,35,29.10
2015,07,04,12,36,29.10
2015,07,04,12,37,29.10
2015,07,04,12,38,29.10
2015,07,04,12,39,29.10
2015,07,04,12,40,29.20
2015,07,04,12,41,29.20
2015,07,04,12,42,29.10
2015,07,04,12,43,29.10
2015,07,04,12,44,29.10
2015,07,04,12,45,29.10
2015,07,04,12,46,29.20
2015,07,04,12,47,29.30
2015,07,04,12,48,29.40
2015,07,04,12,49,29.40
2015,07,04,12,50,29.40
2015,07,04,12,51,29.30
2015,07,04,12,52,29.30
2015,07,04,12,53,29.20
2015,07,04,12,54,29.10
2015,07,04,12,55,29.10
2015,07,04,12,56,29.10
2015,07,04,12,57,29.00
2015,07,04,12,58,29.00
2015,07,04,12,59,29.00
2015,07,04,13,00,29.00
2015,07,04,13,01,29.00
2015,07,04,13,02,29.10
2015,07,04,13,03,29.10
2015,07,04,13,04,29.10
2015,07,04,13,05,29.10
2015,07,04,13,06,29.20
2015,07,04,13,07,29.20
2015,07,04,13,08,29.20
2015,07,04,13,09,29.30
2015,07,04,13,10,29.30
2015,07,04,13,11,29.40
2015,07,04,13,12,29.50
2015,07,04,13,13,29.50
2015,07,04,13,14,29.50
2015,07,04,13,15,29.50
2015,07,04,13,16,29.40
2015,07,04,13,17,29.40
2015,07,04,13,18,29.40
2015,07,04,13,19,29.40
2015,07,04,13,20,29.40
2015,07,04,13,21,29.40
2015,07,04,13,22,29.40
2015,07,04,13,23,29.40
2015,07,04,13,24,29.40
2015,07,04,13,25,29.40
2015,07,04,13,26,29.30
2015,07,04,13,27,29.30
2015,07,04,13,28,29.30
2015,07,04,13,29,29.30
2015,07,04,13,30,29.20
2015,07,04,13,31,29.20
2015,07,04,13,32,29.20
2015,07,04,13,33,29.20
2015,07,04,13,34,29.20
2015,07,04,13,35,29.20
2015,07,04,13,36,29.20
2015,07,04,13,37,29.20
2015,07,04,13,38,29.10
2015,07,04,13,39,29.20
2015,07,04,13,40,29.20
2015,07,04,13,41,29.30
2015,07,04,13,42,29.40
2015,07,04,13,43,29.40
2015,07,04,13,44,29.50
2015,07,04,13,45,29.60
2015,07,04,13,46,29.60
2015,07,04,13,47,29.70
2015,07,04,13,48,29.70
2015,07,04,13,49,29.80
2015,07,04,13,50,29.90
2015,07,04,13,51,30.00
2015,07,04,13,52,30.00
2015,07,04,13,53,30.00
2015,07,04,13,54,29.90
2015,07,04,13,55,29.90
2015,07,04,13,56,29.70
2015,07,04,13,57,29.60
2015,07,04,13,58,29.60
2015,07,04,13,59,29.60
2015,07,04,14,00,29.60
2015,07,04,14,01,29.70
2015,07,04,14,02,29.70
2015,07,04,14,03,29.80
2015,07,04,14,04,29.80
2015,07,04,14,05,29.80
2015,07,04,14,06,29.80
2015,07,04,14,07,29.80
2015,07,04,14,08,29.80
2015,07,04,14,09,29.80
2015,07,04,14,10,29.80
2015,07,04,14,11,29.80
2015,07,04,14,12,29.80
2015,07,04,14,13,29.90
2015,07,04,14,14,29.90
2015,07,04,14,15,29.80
2015,07,04,14,16,29.70
2015,07,04,14,17,29.70
2015,07,04,14,18,29.70
2015,07,04,14,19,29.70
2015,07,04,14,20,29.70
2015,07,04,14,21,29.80
2015,07,04,14,22,29.80
2015,07,04,14,23,29.80
2015,07,04,14,24,29.80
2015,07,04,14,25,29.80
2015,07,04,14,26,29.80
2015,07,04,14,27,29.80
2015,07,04,14,28,29.70
2015,07,04,14,29,29.70
2015,07,04,14,30,29.70
2015,07,04,14,31,29.70
2015,07,04,14,32,29.80
2015,07,04,14,33,29.80
2015,07,04,14,34,29.80
2015,07,04,14,35,29.90
2015,07,04,14,36,29.90
2015,07,04,14,37,29.90
2015,07,04,14,38,29.90
2015,07,04,14,39,29.80
2015,07,04,14,40,29.80
2015,07,04,14,41,29.80
2015,07,04,14,42,29.80
2015,07,04,14,43,29.80
2015,07,04,14,44,29.80
2015,07,04,14,45,29.90
2015,07,04,14,46,29.90
2015,07,04,14,47,30.00
2015,07,04,14,48,30.00
2015,07,04,14,49,30.10
2015,07,04,14,50,30.10
2015,07,04,14,51,30.20
2015,07,04,14,52,30.20
2015,07,04,14,53,30.20
2015,07,04,14,54,30.30
2015,07,04,14,55,30.30
2015,07,04,14,56,30.30
2015,07,04,14,57,30.40
2015,07,04,14,58,30.50
2015,07,04,14,59,30.50
2015,07,04,15,00,30.60
2015,07,04,15,01,30.60
2015,07,04,15,02,30.60
2015,07,04,15,03,30.60
2015,07,04,15,04,30.50
2015,07,04,15,05,30.50
2015,07,04,15,06,30.50
2015,07,04,15,07,30.60
2015,07,04,15,08,30.60
2015,07,04,15,09,30.60
2015,07,04,15,10,30.50
2015,07,04,15,11,30.50
2015,07,04,15,12,30.50
2015,07,04,15,13,30.60
2015,07,04,15,14,30.60
2015,07,04,15,15,30.60
2015,07,04,15,16,30.70
2015,07,04,15,17,30.70
2015,07,04,15,18,30.80
2015,07,04,15,19,30.80
2015,07,04,15,20,30.90
2015,07,04,15,21,31.00
2015,07,04,15,22,31.10
2015,07,04,15,23,31.20
2015,07,04,15,24,31.20
2015,07,04,15,25,31.30
2015,07,04,15,26,31.30
2015,07,04,15,27,31.40
2015,07,04,15,28,31.50
2015,07,04,15,29,31.60
2015,07,04,15,30,31.60
2015,07,04,15,31,31.60
2015,07,04,15,32,31.50
2015,07,04,15,33,31.50
2015,07,04,15,34,31.50
2015,07,04,15,35,31.40
2015,07,04,15,36,31.40
2015,07,04,15,37,31.30
2015,07,04,15,38,31.30
2015,07,04,15,39,31.30
2015,07,04,15,40,31.30
2015,07,04,15,41,31.30
2015,07,04,15,42,31.30
2015,07,04,15,43,31.30
2015,07,04,15,44,31.20
2015,07,04,15,45,31.10
2015,07,04,15,46,31.10
2015,07,04,15,47,31.10
2015,07,04,15,48,31.00
2015,07,04,15,49,30.90
2015,07,04,15,50,30.90
2015,07,04,15,51,30.80
2015,07,04,15,52,30.70
2015,07,04,15,53,30.60
2015,07,04,15,54,30.50
2015,07,04,15,55,30.40
2015,07,04,15,56,30.30
2015,07,04,15,57,30.30
2015,07,04,15,58,30.40
2015,07,04,15,59,30.40
2015,07,04,16,00,30.50
2015,07,04,16,01,30.60
2015,07,04,16,02,30.70
2015,07,04,16,03,30.70
2015,07,04,16,04,30.80
2015,07,04,16,05,30.70
2015,07,04,16,06,30.70
2015,07,04,16,07,30.80
2015,07,04,16,08,30.80
2015,07,04,16,09,30.80
2015,07,04,16,10,30.80
2015,07,04,16,11,30.80
2015,07,04,16,12,30.90
2015,07,04,16,13,30.90
2015,07,04,16,14,31.00
2015,07,04,16,15,31.00
2015,07,04,16,16,31.00
2015,07,04,16,17,31.10
2015,07,04,16,18,31.10
2015,07,04,16,19,31.10
2015,07,04,16,20,31.10
2015,07,04,16,21,31.10
2015,07,04,16,22,31.00
2015,07,04,16,23,31.00
2015,07,04,16,24,30.90
2015,07,04,16,25,30.90
2015,07,04,16,26,30.90
2015,07,04,16,27,30.90
2015,07,04,16,28,30.90
2015,07,04,16,29,30.90
2015,07,04,16,30,30.90
2015,07,04,16,31,30.90
2015,07,04,16,32,31.00
2015,07,04,16,33,31.00
2015,07,04,16,34,31.00
2015,07,04,16,35,31.10
2015,07,04,16,36,31.10
2015,07,04,16,37,31.10
2015,07,04,16,38,31.10
2015,07,04,16,39,31.10
2015,07,04,16,40,31.10
2015,07,04,16,41,31.10
2015,07,04,16,42,31.10
2015,07,04,16,43,31.10
2015,07,04,16,44,31.10
2015,07,04,16,45,31.20
2015,07,04,16,46,31.20
2015,07,04,16,47,31.30
2015,07,04,16,48,31.40
2015,07,04,16,49,31.40
2015,07,04,16,50,31.40
2015,07,04,16,51,31.50
2015,07,04,16,52,31.50
2015,07,04,16,53,31.60
2015,07,04,16,54,31.60
2015,07,04,16,55,31.70
2015,07,04,16,56,31.70
2015,07,04,16,57,31.70
2015,07,04,16,58,31.70
2015,07,04,16,59,31.70
2015,07,04,17,00,31.70
2015,07,04,17,01,31.60
2015,07,04,17,02,31.60
2015,07,04,17,03,31.60
2015,07,04,17,04,31.50
2015,07,04,17,05,31.20
2015,07,04,17,06,30.80
2015,07,04,17,07,30.50
2015,07,04,17,08,30.20
2015,07,04,17,09,29.80
2015,07,04,17,10,29.50
2015,07,04,17,11,29.10
2015,07,04,17,12,28.80
2015,07,04,17,13,28.60
2015,07,04,17,14,28.30
2015,07,04,17,15,28.10
2015,07,04,17,16,27.90
2015,07,04,17,17,27.60
2015,07,04,17,18,27.40
2015,07,04,17,19,27.30
2015,07,04,17,20,27.20
2015,07,04,17,21,27.20
2015,07,04,17,22,27.20